Regional Weather Roundup
Issued by NWS

Home | Current Version | Previous Version | Graphics & Text | Print | Product List | Glossary On
Versions: 1 2 3 4 5 6 7 8 9 10 11 12 13 14 15 16 17 18 19 20 21 22 23 24 25 26 27 28
000
ASUS45 KCYS 221010
RWRWY

WYOMING REGIONAL WEATHER ROUNDUP
NATIONAL WEATHER SERVICE CHEYENNE WY
400 AM MDT FRI JUL 22 2016

NOTE:  "FAIR" INDICATES FEW OR NO CLOUDS BELOW 12,000 FEET
WITH NO SIGNIFICANT WEATHER AND/OR OBSTRUCTIONS TO VISIBILITY.

WYZ001-221100-
YELLOWSTONE NATIONAL PARK

CITY           SKY/WX    TMP DP  RH WIND       PRES   REMARKS
LK YELLOWSTONE   N/A     45  36  70 CALM      30.40S
W YELLOWSTONE  NOT AVBL

$$
WYZ002>013-054>058-071-098>099-221100-
NORTHERN WYOMING

CITY           SKY/WX    TMP DP  RH WIND       PRES   REMARKS
JACKSON        FAIR      54  41  62 N7        30.30R
CODY           FAIR      70  34  26 S5        30.12F
GREYBULL       FAIR      69  41  36 SE6       30.04R
WORLAND        FAIR      76  44  32 SE12      30.06S
SHERIDAN       FAIR      63  46  54 CALM      30.05F
BUFFALO        FAIR      69  39  33 S7        30.14F
GILLETTE       FAIR      73  49  42 SW5       30.09F
HULETT         FAIR      72  36  26 SE6       30.12F
NEWCASTLE      FAIR      75  46  35 E9        30.14F

$$
WYZ014>020-022>026-101>103-221100-
CENTRAL WYOMING

CITY           SKY/WX    TMP DP  RH WIND       PRES   REMARKS
BIG PINEY      FAIR      48  39  71 CALM      30.37S
PINEDALE       FAIR      48  39  71 CALM      30.37F
DUBOIS         FAIR      59  36  41 NW8       30.33F
LANDER         FAIR      70  39  32 NW7       30.17S
RIVERTON       FAIR      69  45  41 S13       30.19S
CASPER         FAIR      62  44  51 W10       30.21F
DOUGLAS          N/A    N/A N/A N/A MISG      30.19F

$$
WYZ021-027>030-104>119-221100-
SOUTHERN WYOMING

CITY           SKY/WX    TMP DP  RH WIND       PRES   REMARKS
EVANSTON       FAIR      67  43  41 SW12      30.37F
KEMMERER         N/A     59  34  38 N3        30.38R
FORT BRIDGER   FAIR      68  41  37 SW18G28   30.37F
ROCK SPRINGS   FAIR      59  42  53 CALM      30.33S
DIXON          FAIR      52  48  86 E3        30.38S
RAWLINS        FAIR      51  40  65 CALM      30.35F
SARATOGA       FAIR      55  46  71 S12       30.38S
LARAMIE        FAIR      59  44  57 E5        30.38F
CHEYENNE       FAIR      71  44  37 NW5       30.27F
TORRINGTON     FAIR      71  57  61 CALM      30.11F
PINE BLUFFS    FAIR      68  55  64 CALM      30.21S

$$




USA.gov is the U.S. government's official web portal to all federal, state and local government web resources and services.